SCP
0 0 0 0 0 0 0 0 0 0 0 0 0 0 0 0 0 0 0 0 0 0 0 0 0 1 0 0 0 0 0 0 0 0 0 0 1 1 0 0 0 0 0 0
0 0 0 0 0 0 0 0 0 0 0 0 0 0 0 0 0 0 0 0 0 0 0 0 0 0 1 0 0 0 0 0 0 0 0 0 0 0 0 0 0 1 0 0
0 0 0 0 0 0 0 0 0 0 0 0 0 0 0 0 0 0 0 0 0 0 0 0 0 0 0 1 0 0 0 0 0 0 0 0 0 0 0 0 0 0 0 0
0 0 0 0 0 0 0 0 0 0 0 0 0 0 0 0 0 0 0 0 0 0 0 0 0 0 0 0 0 0 1 0 0 1 0 0 0 0 0 0 0 1 0 0
0 0 0 0 0 0 0 0 0 0 0 0 0 0 0 0 0 0 0 0 0 0 0 0 0 0 0 0 0 0 0 0 0 1 1 0 0 1 0 0 0 0 0 0
0 0 0 0 0 0 0 0 0 0 0 0 0 0 0 0 0 0 0 0 0 0 0 0 0 0 0 0 0 0 0 0 0 0 0 0 0 1 1 1 0 0 0 0
0 0 0 0 0 0 0 0 0 0 0 0 0 0 0 0 0 0 0 0 0 0 0 0 0 0 0 0 0 0 0 0 0 0 0 0 0 1 1 1 1 1 0 0
0 0 0 0 0 0 0 0 0 0 0 0 0 0 0 0 0 0 0 0 0 0 0 0 0 0 0 0 0 0 0 0 0 0 0 0 0 0 1 1 1 1 1 1
0 0 0 0 0 0 0 0 0 0 0 0 0 0 0 0 0 0 0 0 0 0 0 0 0 0 0 0 0 0 0 0 0 0 0 0 0 0 1 1 1 1 1 1
0 0 0 0 0 0 0 0 0 0 0 0 0 0 0 0 0 0 0 0 0 0 0 0 0 0 0 0 0 0 0 0 0 0 0 0 0 0 0 1 1 1 1 1
0 0 0 0 -0 0 0 0 -0 -0 -0 0 0 0 0 -0 0 0 0 0 0 0 0 0 0 0 0 0 0 0 0 0 0 0 0 0 0 0 0 0 0 1 1 1
0 0 0 0 0 0 0 -0 -0 0 0 0 0 0 0 -0 -0 0 0 0 0 0 0 0 0 0 0 0 0 0 0 0 0 -0 0 0 0 0 0 0 0 0 0 0
0 0 0 0 0 0 0 0 0 0 0 0 0 0 0 0 0 0 0 0 0 0 0 -0 0 -0 0 0 0 0 0 0 0 0 0 0 0 0 0 0 -0 0 0 0
0 0 0 0 0 0 0 0 0 0 0 0 0 0 0 0 0 0 0 0 0 0 0 0 0 0 0 0 0 0 -0 -0 0 0 0 0 0 0 0 0 0 0 0 0
0 0 0 0 0 0 0 0 0 0 0 0 0 0 0 0 0 0 0 0 0 0 0 0 0 0 0 0 0 0 0 -0 -0 -0 0 -0 0 0 0 0 0 0 0 0
0 0 0 0 0 0 0 0 0 0 0 0 0 0 0 0 0 0 0 0 -0 0 0 0 0 0 0 0 0 0 0 0 0 0 0 0 -0 0 0 0 -0 -0 0 0
0 0 0 0 0 0 0 0 0 0 0 0 0 0 0 0 0 0 0 0 0 -0 -0 0 0 0 0 0 0 0 0 0 0 0 -0 0 0 -0 0 -0 -0 -0 -0 -0
0 0 0 0 0 0 0 0 0 0 0 0 0 0 0 0 0 -0 0 0 0 0 0 0 0 0 0 0 -0 0 0 0 0 0 -0 -0 0 0 -0 -0 -0 -0 -0 -0
0 0 0 0 0 0 0 0 0 0 0 0 0 0 0 0 -0 -0 -0 -0 -0 0 0 0 0 0 0 0 0 0 0 0 0 0 0 -0 0 0 0 -0 -0 0 -0 0
0 0 0 0 0 0 0 0 0 0 0 0 0 0 0 0 -0 -0 -0 -0 -0 -0 -0 -0 0 0 0 0 0 0 0 0 0 0 0 0 0 0 0 0 -0 0 0 0
0 0 0 0 0 0 0 0 0 0 0 0 0 0 0 0 -0 -0 -0 -0 -0 -0 -0 -0 -0 -0 0 0 0 0 0 0 0 0 0 0 0 0 0 0 0 0 0 0
0 0 0 0 0 0 0 0 0 0 0 0 0 0 0 0 -0 -0 -0 -0 -0 -0 -0 -0 -0 0 0 0 0 0 0 0 0 0 0 0 0 0 0 0 0 0 0 0
0 0 0 0 0 0 0 0 0 0 0 0 0 0 0 0 0 0 -0 -0 -0 -0 -0 -0 0 0 0 0 0 0 0 0 0 0 0 0 0 0 0 0 0 0 0 0
0 0 0 0 0 0 0 0 0 0 0 0 0 0 0 0 0 0 0 0 0 0 -0 -0 -0 0 0 0 0 0 0 0 0 0 0 0 0 0 0 0 0 0 0 0
0 0 0 0 0 0 0 0 0 0 0 0 0 0 0 0 0 0 0 0 0 0 -0 -0 -0 -0 -0 0 0 0 0 0 0 0 0 0 0 0 0 0 0 0 0 0
0 0 0 0 0 0 0 0 0 -0 0 -0 0 0 -0 0 0 0 0 0 0 -0 -0 0 -0 -0 -0 -0 0 0 0 0 0 0 0 0 0 0 0 0 0 0 0 0
0 0 0 0 0 0 0 0 -0 -0 -0 0 0 0 0 -0 -0 0 0 -0 0 -0 -0 -0 -0 -0 -0 -0 -0 0 0 0 0 0 0 0 0 0 0 0 0 0 0 0
Wind_Speed_500mb
14 11 5 3 4 5 5 6 4 16 10 14 17 20 25 25 30 40 50 55 57 58 48 29 20 11 34 41 52 62 66 76 76 74 76 79 82 80 71 67 65 65 68 67
7 6 5 4 6 9 9 4 6 5 2 12 7 15 24 31 30 36 41 48 52 51 55 52 32 15 11 30 46 53 56 64 66 65 65 66 69 76 80 77 72 70 71 74
8 5 2 7 1 6 2 4 5 7 7 18 11 20 27 22 25 30 36 43 47 48 48 50 50 33 15 16 33 45 49 50 51 53 57 60 64 68 71 75 76 77 76 74
9 7 9 10 8 6 6 12 12 11 11 16 25 31 21 8 25 35 37 40 43 44 45 44 48 38 38 12 22 36 46 49 51 53 55 52 57 61 67 67 69 73 76 79
7 10 3 4 3 4 1 4 10 7 12 18 29 31 12 5 27 34 35 40 42 43 41 39 42 41 35 29 20 24 31 38 45 47 48 53 59 61 59 65 67 70 72 74
6 7 12 9 13 6 10 7 5 8 13 22 26 11 3 23 45 49 42 37 40 45 44 38 37 39 37 29 21 14 4 12 25 43 46 52 53 52 57 60 66 67 73 76
7 5 3 11 10 11 9 8 3 8 14 18 16 22 46 57 55 46 49 52 45 42 46 46 41 39 35 28 21 23 17 12 16 14 27 42 50 52 54 53 55 61 69 74
5 7 9 20 12 10 8 5 6 11 16 22 28 38 44 52 57 57 54 52 51 50 47 46 46 43 39 36 31 27 26 20 19 22 21 19 24 45 50 51 54 55 59 65
12 5 5 18 5 9 5 6 12 12 15 22 30 37 46 50 53 56 57 54 46 48 55 49 48 47 49 43 40 34 30 23 26 32 29 25 22 24 30 51 51 56 60 62
4 14 21 17 10 9 6 1 7 14 19 23 31 44 54 48 50 58 56 54 49 51 50 55 53 49 51 50 47 43 38 33 23 29 28 31 30 33 30 38 51 58 62 68
8 11 6 16 22 14 21 17 16 16 18 24 26 44 46 47 48 55 57 53 54 53 51 52 53 54 51 50 52 51 47 39 38 29 27 33 42 43 46 37 39 58 70 72
9 18 18 14 32 25 30 23 18 16 21 20 30 40 40 46 51 51 52 54 66 59 57 53 48 50 50 50 51 53 56 52 45 42 42 41 41 54 48 50 47 51 57 81
8 25 13 24 25 21 22 17 13 17 18 24 35 31 35 42 50 47 43 40 50 52 46 42 42 35 37 49 52 53 57 59 56 51 53 42 35 51 56 44 53 55 56 62
29 23 17 25 14 21 16 15 18 18 22 27 33 34 35 40 47 46 48 54 53 49 40 37 40 41 42 46 50 61 64 63 61 59 56 54 54 48 66 66 54 57 61 50
36 39 16 14 17 20 18 16 15 14 17 27 35 37 35 38 37 47 50 44 45 44 39 35 34 35 40 43 47 52 61 63 60 60 58 61 58 53 60 55 55 52 69 69
23 26 26 27 21 17 17 15 16 16 18 23 26 30 34 34 39 42 37 38 37 35 35 37 40 40 40 40 44 46 52 59 61 58 59 59 61 63 57 55 56 60 64 56
19 16 16 17 20 19 18 14 15 16 23 20 20 26 34 34 33 29 38 34 29 31 31 35 41 45 43 44 44 41 45 49 51 51 52 54 61 68 61 54 64 66 63 61
25 16 12 13 21 18 18 16 14 16 21 18 18 23 23 28 32 32 31 32 30 34 35 47 34 33 40 41 41 44 51 54 52 51 49 51 54 59 65 60 63 62 60 54
30 28 25 19 19 22 21 19 15 14 12 6 4 14 21 27 29 31 33 33 35 40 42 48 46 39 40 42 38 39 52 56 51 48 49 48 48 51 54 58 56 57 57 53
22 29 32 29 25 24 23 21 19 17 9 6 3 11 17 20 32 28 30 29 31 35 41 52 49 40 39 36 34 37 42 41 42 44 45 44 42 43 45 54 49 52 49 49
22 23 31 35 33 29 28 25 24 23 17 9 5 8 21 23 19 23 27 27 31 38 45 55 55 50 39 33 38 30 29 31 33 37 40 40 40 39 39 42 45 44 40 38
28 27 27 34 37 36 28 29 28 25 21 17 9 12 17 18 14 14 25 35 40 33 48 55 51 52 37 28 20 18 16 17 21 28 32 33 32 27 27 30 28 30 31 32
28 29 33 35 32 32 35 42 35 29 21 20 12 11 16 19 23 20 19 25 37 42 36 53 50 53 39 31 24 15 10 4 7 15 20 20 20 23 22 22 22 22 24 27
28 24 19 20 22 33 26 28 37 32 22 21 13 9 12 11 15 17 18 20 22 33 38 49 50 45 58 48 40 34 29 25 17 20 25 25 25 26 27 27 29 31 32 36
25 24 20 19 22 15 24 30 30 34 27 23 13 9 11 7 13 14 10 13 20 17 31 47 49 46 55 56 57 52 45 38 41 44 44 47 48 43 42 43 45 47 51 52
23 24 23 24 22 20 27 12 29 31 27 19 9 6 6 6 8 11 5 10 14 15 22 24 40 39 48 60 56 53 51 50 49 51 52 53 54 53 58 59 56 55 56 59
20 22 27 26 17 22 19 32 26 26 23 12 11 7 2 3 3 6 6 9 8 11 16 15 20 31 30 40 58 62 60 45 42 46 48 49 49 48 54 61 58 60 60 59
Wind_Direction_500mb
72 80 91 164 238 337 353 66 311 133 120 59 39 34 30 25 28 30 25 24 22 25 32 15 4 315 246 238 243 251 249 249 248 251 251 248 244 243 242 245 243 240 239 237
83 61 17 264 253 293 291 294 243 232 222 26 37 32 28 26 31 26 20 18 15 17 19 30 19 345 301 241 247 251 251 251 250 249 250 251 250 246 245 245 246 246 242 241
148 14 182 226 196 221 266 43 338 242 54 356 11 5 1 14 26 20 12 11 11 9 9 11 24 17 317 277 231 235 246 249 249 246 245 247 248 246 245 245 246 247 248 245
137 150 211 84 41 13 230 62 43 106 48 10 341 328 316 82 27 12 1 360 358 358 360 360 7 20 20 295 249 231 233 240 241 243 245 247 247 247 247 245 244 246 248 249
178 193 82 191 57 58 46 127 31 27 5 354 340 324 176 88 1 349 342 343 342 341 343 346 349 1 20 31 354 254 250 247 247 242 244 246 247 247 248 245 243 244 245 247
177 206 202 112 148 161 166 234 123 6 352 346 346 303 280 321 325 321 322 322 323 327 326 329 335 342 351 7 17 11 289 241 260 261 257 249 249 250 251 248 245 245 245 245
182 237 221 147 148 156 221 79 0 327 327 322 308 293 295 307 308 313 312 309 304 305 313 315 319 321 332 338 358 22 21 9 4 332 272 261 259 259 256 253 247 245 244 244
179 221 236 158 155 227 68 57 359 348 336 325 318 312 306 303 303 306 307 307 304 297 291 300 302 305 306 315 314 299 301 319 329 339 350 313 284 263 261 258 252 251 245 243
207 213 130 168 172 151 135 46 11 352 331 323 319 322 318 307 302 302 302 301 301 298 290 283 288 292 292 297 306 297 287 288 303 310 303 317 335 322 294 262 259 255 253 247
207 195 207 210 207 205 193 339 289 293 306 314 310 316 317 310 303 302 300 299 298 295 290 285 282 280 280 284 292 296 290 287 281 289 308 312 321 319 321 318 261 254 257 255
250 249 195 233 218 234 226 240 263 284 290 295 303 312 314 310 308 304 299 295 296 294 287 285 283 278 273 269 278 288 293 292 286 279 281 289 295 310 310 315 302 264 254 256
215 199 186 220 210 207 215 237 262 285 304 308 314 311 313 315 319 317 304 300 306 299 290 291 287 283 271 266 270 279 288 296 293 286 281 277 284 279 297 298 294 296 275 252
221 180 162 163 182 195 212 234 263 294 302 320 321 316 317 318 322 323 323 317 312 315 301 288 287 271 262 264 271 279 283 287 292 290 283 282 282 283 296 285 284 293 294 273
207 168 193 209 208 203 224 267 290 304 320 331 326 323 321 315 315 320 312 315 317 323 309 290 277 269 265 264 268 274 279 284 287 289 290 283 279 288 280 298 301 298 292 285
216 216 219 213 219 234 246 261 274 282 304 325 329 324 327 324 322 320 326 317 319 319 321 309 289 280 275 274 270 271 276 280 282 284 283 287 282 283 277 284 286 286 290 281
202 212 221 234 238 233 243 251 273 278 305 320 321 326 328 323 315 322 327 331 328 325 320 316 309 303 295 288 287 282 274 276 279 281 280 279 282 278 277 278 282 278 276 277
164 193 214 226 217 219 228 256 287 284 300 313 317 331 339 330 336 327 324 332 340 349 341 323 307 301 303 292 290 290 283 276 277 281 278 276 276 279 277 279 279 282 282 279
236 229 221 219 211 213 233 259 280 287 305 311 326 330 339 352 357 349 344 341 342 344 340 340 336 316 299 299 293 286 286 281 275 275 275 270 266 266 273 274 274 275 276 275
257 247 243 245 229 230 237 252 263 272 301 329 357 25 14 349 337 341 342 339 339 350 345 347 337 319 315 305 293 282 276 278 277 267 265 266 263 260 263 269 271 273 269 270
261 245 243 243 236 241 244 246 248 243 229 173 77 352 8 9 13 359 1 356 355 355 355 360 350 339 324 318 307 284 276 273 271 267 262 258 254 255 257 263 266 265 262 260
291 274 250 245 247 242 241 237 238 230 228 236 281 314 342 11 43 11 7 4 14 12 8 5 359 349 338 321 312 302 284 271 258 255 253 251 255 252 252 254 252 256 251 246
306 297 304 276 246 237 234 242 228 219 230 228 246 277 308 322 325 352 21 11 359 344 6 7 4 1 352 337 329 326 308 276 252 238 234 235 242 247 239 232 227 229 221 217
310 301 294 287 281 248 214 236 215 211 222 218 225 279 298 296 326 289 308 340 351 5 6 12 11 15 20 22 24 23 28 21 202 188 188 191 203 214 212 207 195 199 195 185
325 322 307 305 283 239 230 209 209 203 203 202 215 283 313 322 341 316 342 320 327 346 21 20 19 22 34 42 48 55 65 74 90 118 122 129 138 147 149 152 149 146 146 138
349 339 321 312 305 275 228 222 223 197 198 204 209 269 301 301 324 321 347 338 344 332 17 35 35 30 28 38 46 55 61 72 87 95 101 106 108 111 114 118 119 119 116 116
2 2 358 352 309 251 199 179 189 195 197 193 194 214 291 314 334 328 308 341 341 351 2 358 23 49 47 50 47 44 45 54 63 73 84 90 97 104 107 106 105 108 108 104
344 344 344 327 308 208 206 164 181 187 189 178 172 194 112 146 30 68 47 12 4 9 25 13 18 26 49 47 48 47 46 43 45 59 68 76 82 88 93 94 92 94 92 90
Wind_Speed_850mb
14 11 5 3 4 5 5 6 4 16 10 14 17 20 25 25 30 40 50 55 57 58 48 29 20 11 34 41 52 62 66 76 76 74 76 79 82 80 71 67 65 65 68 67
7 6 5 4 6 9 9 4 6 5 2 12 7 15 24 31 30 36 41 48 52 51 55 52 32 15 11 30 46 53 56 64 66 65 65 66 69 76 80 77 72 70 71 74
8 5 2 7 1 6 2 4 5 7 7 18 11 20 27 22 25 30 36 43 47 48 48 50 50 33 15 16 33 45 49 50 51 53 57 60 64 68 71 75 76 77 76 74
9 7 9 10 8 6 6 12 12 11 11 16 25 31 21 8 25 35 37 40 43 44 45 44 48 38 38 12 22 36 46 49 51 53 55 52 57 61 67 67 69 73 76 79
7 10 3 4 3 4 1 4 10 7 12 18 29 31 12 5 27 34 35 40 42 43 41 39 42 41 35 29 20 24 31 38 45 47 48 53 59 61 59 65 67 70 72 74
6 7 12 9 13 6 10 7 5 8 13 22 26 11 3 23 45 49 42 37 40 45 44 38 37 39 37 29 21 14 4 12 25 43 46 52 53 52 57 60 66 67 73 76
7 5 3 11 10 11 9 8 3 8 14 18 16 22 46 57 55 46 49 52 45 42 46 46 41 39 35 28 21 23 17 12 16 14 27 42 50 52 54 53 55 61 69 74
5 7 9 20 12 10 8 5 6 11 16 22 28 38 44 52 57 57 54 52 51 50 47 46 46 43 39 36 31 27 26 20 19 22 21 19 24 45 50 51 54 55 59 65
12 5 5 18 5 9 5 6 12 12 15 22 30 37 46 50 53 56 57 54 46 48 55 49 48 47 49 43 40 34 30 23 26 32 29 25 22 24 30 51 51 56 60 62
4 14 21 17 10 9 6 1 7 14 19 23 31 44 54 48 50 58 56 54 49 51 50 55 53 49 51 50 47 43 38 33 23 29 28 31 30 33 30 38 51 58 62 68
8 11 6 16 22 14 21 17 16 16 18 24 26 44 46 47 48 55 57 53 54 53 51 52 53 54 51 50 52 51 47 39 38 29 27 33 42 43 46 37 39 58 70 72
9 18 18 14 32 25 30 23 18 16 21 20 30 40 40 46 51 51 52 54 66 59 57 53 48 50 50 50 51 53 56 52 45 42 42 41 41 54 48 50 47 51 57 81
8 25 13 24 25 21 22 17 13 17 18 24 35 31 35 42 50 47 43 40 50 52 46 42 42 35 37 49 52 53 57 59 56 51 53 42 35 51 56 44 53 55 56 62
29 23 17 25 14 21 16 15 18 18 22 27 33 34 35 40 47 46 48 54 53 49 40 37 40 41 42 46 50 61 64 63 61 59 56 54 54 48 66 66 54 57 61 50
36 39 16 14 17 20 18 16 15 14 17 27 35 37 35 38 37 47 50 44 45 44 39 35 34 35 40 43 47 52 61 63 60 60 58 61 58 53 60 55 55 52 69 69
23 26 26 27 21 17 17 15 16 16 18 23 26 30 34 34 39 42 37 38 37 35 35 37 40 40 40 40 44 46 52 59 61 58 59 59 61 63 57 55 56 60 64 56
19 16 16 17 20 19 18 14 15 16 23 20 20 26 34 34 33 29 38 34 29 31 31 35 41 45 43 44 44 41 45 49 51 51 52 54 61 68 61 54 64 66 63 61
25 16 12 13 21 18 18 16 14 16 21 18 18 23 23 28 32 32 31 32 30 34 35 47 34 33 40 41 41 44 51 54 52 51 49 51 54 59 65 60 63 62 60 54
30 28 25 19 19 22 21 19 15 14 12 6 4 14 21 27 29 31 33 33 35 40 42 48 46 39 40 42 38 39 52 56 51 48 49 48 48 51 54 58 56 57 57 53
22 29 32 29 25 24 23 21 19 17 9 6 3 11 17 20 32 28 30 29 31 35 41 52 49 40 39 36 34 37 42 41 42 44 45 44 42 43 45 54 49 52 49 49
22 23 31 35 33 29 28 25 24 23 17 9 5 8 21 23 19 23 27 27 31 38 45 55 55 50 39 33 38 30 29 31 33 37 40 40 40 39 39 42 45 44 40 38
28 27 27 34 37 36 28 29 28 25 21 17 9 12 17 18 14 14 25 35 40 33 48 55 51 52 37 28 20 18 16 17 21 28 32 33 32 27 27 30 28 30 31 32
28 29 33 35 32 32 35 42 35 29 21 20 12 11 16 19 23 20 19 25 37 42 36 53 50 53 39 31 24 15 10 4 7 15 20 20 20 23 22 22 22 22 24 27
28 24 19 20 22 33 26 28 37 32 22 21 13 9 12 11 15 17 18 20 22 33 38 49 50 45 58 48 40 34 29 25 17 20 25 25 25 26 27 27 29 31 32 36
25 24 20 19 22 15 24 30 30 34 27 23 13 9 11 7 13 14 10 13 20 17 31 47 49 46 55 56 57 52 45 38 41 44 44 47 48 43 42 43 45 47 51 52
23 24 23 24 22 20 27 12 29 31 27 19 9 6 6 6 8 11 5 10 14 15 22 24 40 39 48 60 56 53 51 50 49 51 52 53 54 53 58 59 56 55 56 59
20 22 27 26 17 22 19 32 26 26 23 12 11 7 2 3 3 6 6 9 8 11 16 15 20 31 30 40 58 62 60 45 42 46 48 49 49 48 54 61 58 60 60 59
Wind_Direction_850mb
72 80 91 164 238 337 353 66 311 133 120 59 39 34 30 25 28 30 25 24 22 25 32 15 4 315 246 238 243 251 249 249 248 251 251 248 244 243 242 245 243 240 239 237
83 61 17 264 253 293 291 294 243 232 222 26 37 32 28 26 31 26 20 18 15 17 19 30 19 345 301 241 247 251 251 251 250 249 250 251 250 246 245 245 246 246 242 241
148 14 182 226 196 221 266 43 338 242 54 356 11 5 1 14 26 20 12 11 11 9 9 11 24 17 317 277 231 235 246 249 249 246 245 247 248 246 245 245 246 247 248 245
137 150 211 84 41 13 230 62 43 106 48 10 341 328 316 82 27 12 1 360 358 358 360 360 7 20 20 295 249 231 233 240 241 243 245 247 247 247 247 245 244 246 248 249
178 193 82 191 57 58 46 127 31 27 5 354 340 324 176 88 1 349 342 343 342 341 343 346 349 1 20 31 354 254 250 247 247 242 244 246 247 247 248 245 243 244 245 247
177 206 202 112 148 161 166 234 123 6 352 346 346 303 280 321 325 321 322 322 323 327 326 329 335 342 351 7 17 11 289 241 260 261 257 249 249 250 251 248 245 245 245 245
182 237 221 147 148 156 221 79 0 327 327 322 308 293 295 307 308 313 312 309 304 305 313 315 319 321 332 338 358 22 21 9 4 332 272 261 259 259 256 253 247 245 244 244
179 221 236 158 155 227 68 57 359 348 336 325 318 312 306 303 303 306 307 307 304 297 291 300 302 305 306 315 314 299 301 319 329 339 350 313 284 263 261 258 252 251 245 243
207 213 130 168 172 151 135 46 11 352 331 323 319 322 318 307 302 302 302 301 301 298 290 283 288 292 292 297 306 297 287 288 303 310 303 317 335 322 294 262 259 255 253 247
207 195 207 210 207 205 193 339 289 293 306 314 310 316 317 310 303 302 300 299 298 295 290 285 282 280 280 284 292 296 290 287 281 289 308 312 321 319 321 318 261 254 257 255
250 249 195 233 218 234 226 240 263 284 290 295 303 312 314 310 308 304 299 295 296 294 287 285 283 278 273 269 278 288 293 292 286 279 281 289 295 310 310 315 302 264 254 256
215 199 186 220 210 207 215 237 262 285 304 308 314 311 313 315 319 317 304 300 306 299 290 291 287 283 271 266 270 279 288 296 293 286 281 277 284 279 297 298 294 296 275 252
221 180 162 163 182 195 212 234 263 294 302 320 321 316 317 318 322 323 323 317 312 315 301 288 287 271 262 264 271 279 283 287 292 290 283 282 282 283 296 285 284 293 294 273
207 168 193 209 208 203 224 267 290 304 320 331 326 323 321 315 315 320 312 315 317 323 309 290 277 269 265 264 268 274 279 284 287 289 290 283 279 288 280 298 301 298 292 285
216 216 219 213 219 234 246 261 274 282 304 325 329 324 327 324 322 320 326 317 319 319 321 309 289 280 275 274 270 271 276 280 282 284 283 287 282 283 277 284 286 286 290 281
202 212 221 234 238 233 243 251 273 278 305 320 321 326 328 323 315 322 327 331 328 325 320 316 309 303 295 288 287 282 274 276 279 281 280 279 282 278 277 278 282 278 276 277
164 193 214 226 217 219 228 256 287 284 300 313 317 331 339 330 336 327 324 332 340 349 341 323 307 301 303 292 290 290 283 276 277 281 278 276 276 279 277 279 279 282 282 279
236 229 221 219 211 213 233 259 280 287 305 311 326 330 339 352 357 349 344 341 342 344 340 340 336 316 299 299 293 286 286 281 275 275 275 270 266 266 273 274 274 275 276 275
257 247 243 245 229 230 237 252 263 272 301 329 357 25 14 349 337 341 342 339 339 350 345 347 337 319 315 305 293 282 276 278 277 267 265 266 263 260 263 269 271 273 269 270
261 245 243 243 236 241 244 246 248 243 229 173 77 352 8 9 13 359 1 356 355 355 355 360 350 339 324 318 307 284 276 273 271 267 262 258 254 255 257 263 266 265 262 260
291 274 250 245 247 242 241 237 238 230 228 236 281 314 342 11 43 11 7 4 14 12 8 5 359 349 338 321 312 302 284 271 258 255 253 251 255 252 252 254 252 256 251 246
306 297 304 276 246 237 234 242 228 219 230 228 246 277 308 322 325 352 21 11 359 344 6 7 4 1 352 337 329 326 308 276 252 238 234 235 242 247 239 232 227 229 221 217
310 301 294 287 281 248 214 236 215 211 222 218 225 279 298 296 326 289 308 340 351 5 6 12 11 15 20 22 24 23 28 21 202 188 188 191 203 214 212 207 195 199 195 185
325 322 307 305 283 239 230 209 209 203 203 202 215 283 313 322 341 316 342 320 327 346 21 20 19 22 34 42 48 55 65 74 90 118 122 129 138 147 149 152 149 146 146 138
349 339 321 312 305 275 228 222 223 197 198 204 209 269 301 301 324 321 347 338 344 332 17 35 35 30 28 38 46 55 61 72 87 95 101 106 108 111 114 118 119 119 116 116
2 2 358 352 309 251 199 179 189 195 197 193 194 214 291 314 334 328 308 341 341 351 2 358 23 49 47 50 47 44 45 54 63 73 84 90 97 104 107 106 105 108 108 104
344 344 344 327 308 208 206 164 181 187 189 178 172 194 112 146 30 68 47 12 4 9 25 13 18 26 49 47 48 47 46 43 45 59 68 76 82 88 93 94 92 94 92 90